• în România
  • Lista ţărilor
  • Pe 7 zile
  • Temperatura apei
  • Hartă satelitară
  • Meteo pe hartă
  • Widget-uri
  • user-avatar
    Intrare

    Meteo pe oră la Kalgoorlie

    Astăzi, 16 Octombrie, Marţi

    Timp Temperatura Precipitaţii Vânt Presiune Umiditate
    00:00 +18°C° 0 mm 3 m/s 733 mmHg 48%
    01:00 +18°C° 0 mm 4 m/s 733 mmHg 52%
    02:00 +17°C° 0 mm 4 m/s 733 mmHg 55%
    03:00 +15°C° 0 mm 4 m/s 733 mmHg 60%
    04:00 +15°C° 0 mm 4 m/s 734 mmHg 64%
    05:00 +14°C° 0 mm 4 m/s 734 mmHg 68%
    06:00 +15°C° 0 mm 4 m/s 734 mmHg 63%
    07:00 +17°C° 0 mm 5 m/s 734 mmHg 58%
    08:00 +19°C° 0 mm 5 m/s 734 mmHg 53%
    09:00 +21°C° 0 mm 5 m/s 734 mmHg 46%
    10:00 +22°C° 0 mm 4 m/s 734 mmHg 40%
    11:00 +25°C° 0 mm 4 m/s 734 mmHg 33%
    12:00 +25°C° 0 mm 4 m/s 734 mmHg 31%
    13:00 +26°C° 0 mm 3 m/s 733 mmHg 28%
    14:00 +27°C° 0 mm 3 m/s 733 mmHg 25%
    15:00 +27°C° 0 mm 4 m/s 732 mmHg 25%
    16:00 +27°C° 0 mm 4 m/s 732 mmHg 25%
    17:00 +27°C° 0 mm 4 m/s 732 mmHg 24%
    18:00 +26°C° 0 mm 4 m/s 732 mmHg 27%
    19:00 +25°C° 0 mm 4 m/s 732 mmHg 30%
    20:00 +23°C° 0 mm 4 m/s 733 mmHg 32%
    21:00 +23°C° 0 mm 4 m/s 733 mmHg 34%
    22:00 +22°C° 0 mm 5 m/s 733 mmHg 36%
    23:00 +21°C° 0 mm 6 m/s 733 mmHg 37%

    Mâine, 17 Octombrie, Miercuri

    Timp Temperatura Precipitaţii Vânt Presiune Umiditate
    00:00 +21°C° 0 mm 6 m/s 732 mmHg 37%
    01:00 +20°C° 0 mm 6 m/s 732 mmHg 36%
    02:00 +19°C° 0 mm 6 m/s 732 mmHg 36%
    03:00 +19°C° 0 mm 6 m/s 731 mmHg 37%
    04:00 +17°C° 0 mm 6 m/s 731 mmHg 38%
    05:00 +17°C° 0 mm 6 m/s 731 mmHg 39%
    06:00 +18°C° 0 mm 7 m/s 731 mmHg 36%
    07:00 +21°C° 0 mm 7 m/s 731 mmHg 34%
    08:00 +22°C° 0 mm 8 m/s 731 mmHg 32%
    09:00 +24°C° 0 mm 8 m/s 731 mmHg 29%
    10:00 +27°C° 0 mm 8 m/s 730 mmHg 26%
    11:00 +29°C° 0 mm 8 m/s 730 mmHg 23%
    12:00 +31°C° 0 mm 8 m/s 729 mmHg 21%
    13:00 +32°C° 0 mm 7 m/s 729 mmHg 20%
    14:00 +32°C° 0 mm 7 m/s 728 mmHg 18%
    15:00 +32°C° 0 mm 7 m/s 727 mmHg 18%
    16:00 +32°C° 0 mm 7 m/s 727 mmHg 17%
    17:00 +32°C° 0 mm 6 m/s 726 mmHg 17%
    18:00 +30°C° 0 mm 6 m/s 726 mmHg 18%
    19:00 +29°C° 0 mm 6 m/s 725 mmHg 20%
    20:00 +27°C° 0 mm 7 m/s 725 mmHg 21%
    21:00 +27°C° 0 mm 7 m/s 725 mmHg 21%
    22:00 +27°C° 0 mm 8 m/s 724 mmHg 21%
    23:00 +26°C° 0 mm 9 m/s 723 mmHg 21%

    Poimâine, 18 Octombrie, Joi

    Timp Temperatura Precipitaţii Vânt Presiune Umiditate
    00:00 +26°C° 0 mm 9 m/s 723 mmHg 22%
    01:00 +24°C° 0 mm 8 m/s 722 mmHg 23%
    02:00 +23°C° 0 mm 7 m/s 722 mmHg 23%
    03:00 +22°C° 0 mm 6 m/s 722 mmHg 26%
    04:00 +21°C° 0 mm 5 m/s 722 mmHg 29%
    05:00 +20°C° 0 mm 3 m/s 722 mmHg 33%
    06:00 +21°C° 0 mm 4 m/s 722 mmHg 32%
    07:00 +22°C° 0 mm 5 m/s 722 mmHg 31%
    08:00 +23°C° 0 mm 5 m/s 723 mmHg 31%
    09:00 +26°C° 0 mm 6 m/s 723 mmHg 28%
    10:00 +27°C° 0 mm 7 m/s 723 mmHg 25%
    11:00 +28°C° 0 mm 8 m/s 723 mmHg 22%
    12:00 +28°C° 0 mm 10 m/s 722 mmHg 26%
    13:00 +28°C° 0 mm 12 m/s 722 mmHg 29%
    14:00 +28°C° 0 mm 13 m/s 722 mmHg 33%
    15:00 +24°C° 0 mm 13 m/s 722 mmHg 36%
    16:00 +22°C° 0 mm 13 m/s 723 mmHg 40%
    17:00 +19°C° 0 mm 12 m/s 723 mmHg 43%
    18:00 +18°C° 0 mm 12 m/s 724 mmHg 42%
    19:00 +17°C° 0 mm 11 m/s 725 mmHg 40%
    20:00 +16°C° 0 mm 11 m/s 726 mmHg 39%
    21:00 +14°C° 0 mm 10 m/s 726 mmHg 43%
    22:00 +13°C° 0 mm 9 m/s 727 mmHg 47%
    23:00 +12°C° 0 mm 9 m/s 727 mmHg 50%

    19 Octombrie, Vineri

    Timp Temperatura Precipitaţii Vânt Presiune Umiditate
    00:00 +12°C° 0 mm 9 m/s 727 mmHg 54%
    01:00 +11°C° 0 mm 9 m/s 728 mmHg 57%
    02:00 +10°C° 0 mm 9 m/s 728 mmHg 60%
    03:00 +9°C° 0 mm 8 m/s 728 mmHg 61%
    04:00 +9°C° 0 mm 8 m/s 729 mmHg 62%
    05:00 +8°C° 0 mm 7 m/s 729 mmHg 63%
    06:00 +9°C° 0 mm 8 m/s 730 mmHg 57%
    07:00 +10°C° 0 mm 8 m/s 731 mmHg 50%
    08:00 +11°C° 0 mm 8 m/s 732 mmHg 43%
    09:00 +12°C° 0 mm 8 m/s 732 mmHg 39%
    10:00 +15°C° 0 mm 7 m/s 732 mmHg 34%
    11:00 +16°C° 0 mm 7 m/s 732 mmHg 30%
    12:00 +17°C° 0 mm 6 m/s 732 mmHg 28%
    13:00 +19°C° 0 mm 6 m/s 731 mmHg 26%
    14:00 +20°C° 0 mm 5 m/s 731 mmHg 25%
    15:00 +20°C° 0 mm 5 m/s 731 mmHg 25%
    16:00 +20°C° 0 mm 5 m/s 731 mmHg 26%
    17:00 +20°C° 0 mm 5 m/s 732 mmHg 26%
    18:00 +19°C° 0 mm 5 m/s 732 mmHg 29%
    19:00 +19°C° 0 mm 4 m/s 733 mmHg 32%
    20:00 +18°C° 0 mm 3 m/s 734 mmHg 35%
    21:00 +17°C° 0 mm 3 m/s 734 mmHg 38%
    22:00 +16°C° 0 mm 3 m/s 734 mmHg 40%
    23:00 +14°C° 0 mm 3 m/s 734 mmHg 43%

    20 Octombrie, Sâmbătă

    Timp Temperatura Precipitaţii Vânt Presiune Umiditate
    00:00 +14°C° 0 mm 3 m/s 733 mmHg 45%
    01:00 +14°C° 0 mm 2 m/s 733 mmHg 46%
    02:00 +14°C° 0 mm 2 m/s 733 mmHg 48%
    03:00 +14°C° 0 mm 2 m/s 733 mmHg 48%
    04:00 +13°C° 0 mm 2 m/s 733 mmHg 49%
    05:00 +13°C° 0 mm 2 m/s 733 mmHg 50%
    06:00 +15°C° 0 mm 2 m/s 733 mmHg 45%
    07:00 +16°C° 0 mm 3 m/s 734 mmHg 40%
    08:00 +18°C° 0 mm 3 m/s 734 mmHg 36%
    09:00 +19°C° 0 mm 4 m/s 734 mmHg 32%
    10:00 +21°C° 0 mm 4 m/s 733 mmHg 28%
    11:00 +23°C° 0 mm 4 m/s 733 mmHg 25%
    12:00 +25°C° 0 mm 4 m/s 732 mmHg 22%
    13:00 +26°C° 0 mm 5 m/s 731 mmHg 20%
    14:00 +27°C° 0 mm 5 m/s 730 mmHg 18%
    15:00 +27°C° 0 mm 5 m/s 730 mmHg 18%
    16:00 +27°C° 0 mm 5 m/s 730 mmHg 18%
    17:00 +28°C° 0 mm 5 m/s 730 mmHg 18%
    18:00 +26°C° 0 mm 4 m/s 730 mmHg 20%
    19:00 +25°C° 0 mm 3 m/s 730 mmHg 22%
    20:00 +24°C° 0 mm 3 m/s 731 mmHg 23%
    21:00 +22°C° 0 mm 3 m/s 730 mmHg 26%
    22:00 +21°C° 0 mm 3 m/s 730 mmHg 28%
    23:00 +21°C° 0 mm 3 m/s 730 mmHg 30%

    21 Octombrie, Duminică

    Timp Temperatura Precipitaţii Vânt Presiune Umiditate
    00:00 +20°C° 0 mm 3 m/s 729 mmHg 34%
    01:00 +19°C° 0 mm 3 m/s 729 mmHg 38%
    02:00 +18°C° 0 mm 3 m/s 729 mmHg 42%
    03:00 +17°C° 0 mm 3 m/s 729 mmHg 48%
    04:00 +15°C° 0 mm 4 m/s 729 mmHg 54%
    05:00 +15°C° 0 mm 4 m/s 729 mmHg 60%
    06:00 +17°C° 0 mm 4 m/s 729 mmHg 58%
    07:00 +18°C° 0 mm 4 m/s 729 mmHg 56%
    08:00 +19°C° 0 mm 4 m/s 730 mmHg 54%
    09:00 +21°C° 0 mm 4 m/s 729 mmHg 47%
    10:00 +23°C° 0 mm 5 m/s 729 mmHg 40%
    11:00 +25°C° 0 mm 5 m/s 728 mmHg 33%
    12:00 +27°C° 0 mm 6 m/s 728 mmHg 29%
    13:00 +28°C° 0 mm 7 m/s 727 mmHg 25%
    14:00 +29°C° 0 mm 8 m/s 727 mmHg 21%
    15:00 +29°C° 0 mm 8 m/s 727 mmHg 21%
    16:00 +28°C° 0 mm 9 m/s 727 mmHg 21%
    17:00 +28°C° 0 mm 9 m/s 727 mmHg 22%
    18:00 +26°C° 0 mm 8 m/s 727 mmHg 27%
    19:00 +23°C° 0 mm 8 m/s 728 mmHg 33%
    20:00 +22°C° 0 mm 8 m/s 728 mmHg 38%
    21:00 +20°C° 0.1 mm 8 m/s 729 mmHg 48%
    22:00 +18°C° 0.1 mm 8 m/s 729 mmHg 58%
    23:00 +16°C° 0.1 mm 8 m/s 729 mmHg 68%
    Arată mai mult